Location: Unspecified
(0.0000°N, 0.0000°E)
Time: 18:37:33
(UTC+00:00)

Vanguard 1 Rocket - Pass Details

Date: 23 April 2026
Orbit: 655 x 4212 km, 34.3° (Epoch: 17 May)

Event Time Altitude Azimuth Distance (km) Brightness Sun altitude
Rises 23:39:01 0° 308° (NW) 8,419 12.5 -76.6°
Reaches altitude 10° 23:48:18 10° 323° (NW) 7,366 12.1 -77.3°
Maximum altitude 00:04:46 21° 5° (N) 5,767 11.4 -77.4°
Drops below altitude 10° 00:17:16 10° 48° (NE) 5,583 11.5 -76.7°
Sets 00:22:37 0° 64° (ENE) 5,998 11.7 -76.2°
